When you browse on this site, cookies collect data to enhance your experience and personalize the content and advertising you see.
Visit our Privacy Policy to learn more. By continuing to use the site, you agree to this use of cookies and data.
  • In Österreich
  • Länderverzeichnis
  • Für 7 Tage
  • Wassertemperatur
  • Satellitenkarten
  • Wetterkarte
  • News
  • Widgets
  • user-avatar
    Anmelden

    Stündliche Wetter Sunnyvale

    Heute, 17 Februar, Sonntag

    Zeit Temperatur Niederschläge Wind Luftdruck Luftfeuchtigkeit
    00:00 +7°C° 0 mm 2 m/S 762 mmHg 77%
    01:00 +6°C° 0 mm 2 m/S 762 mmHg 79%
    02:00 +7°C° 1.1 mm 2 m/S 761 mmHg 81%
    03:00 +7°C° 1.1 mm 2 m/S 761 mmHg 84%
    04:00 +7°C° 1.1 mm 2 m/S 761 mmHg 87%
    05:00 +7°C° 0.2 mm 2 m/S 760 mmHg 84%
    06:00 +7°C° 0.2 mm 3 m/S 760 mmHg 81%
    07:00 +7°C° 0.2 mm 3 m/S 760 mmHg 79%
    08:00 +7°C° 0 mm 4 m/S 760 mmHg 72%
    09:00 +8°C° 0 mm 5 m/S 760 mmHg 65%
    10:00 +8°C° 0 mm 5 m/S 760 mmHg 59%
    11:00 +9°C° 0.1 mm 5 m/S 760 mmHg 55%
    12:00 +9°C° 0.1 mm 6 m/S 760 mmHg 52%
    13:00 +10°C° 0.1 mm 6 m/S 760 mmHg 48%
    14:00 +9°C° 0.2 mm 5 m/S 759 mmHg 51%
    15:00 +9°C° 0.2 mm 5 m/S 759 mmHg 53%
    16:00 +9°C° 0.2 mm 5 m/S 759 mmHg 55%
    17:00 +8°C° 0.1 mm 4 m/S 759 mmHg 59%
    18:00 +8°C° 0.1 mm 3 m/S 760 mmHg 64%
    19:00 +7°C° 0.1 mm 3 m/S 760 mmHg 68%
    20:00 +7°C° 0 mm 2 m/S 760 mmHg 69%
    21:00 +6°C° 0 mm 2 m/S 761 mmHg 70%
    22:00 +6°C° 0 mm 2 m/S 761 mmHg 71%
    23:00 +6°C° 0 mm 2 m/S 761 mmHg 73%

    Morgen, 18 Februar, Montag

    Zeit Temperatur Niederschläge Wind Luftdruck Luftfeuchtigkeit
    00:00 +5°C° 0 mm 2 m/S 761 mmHg 74%
    01:00 +5°C° 0 mm 2 m/S 762 mmHg 75%
    02:00 +5°C° 0 mm 2 m/S 762 mmHg 72%
    03:00 +5°C° 0 mm 2 m/S 762 mmHg 69%
    04:00 +4°C° 0 mm 2 m/S 762 mmHg 67%
    05:00 +4°C° 0 mm 2 m/S 762 mmHg 65%
    06:00 +3°C° 0 mm 2 m/S 762 mmHg 64%
    07:00 +3°C° 0 mm 2 m/S 763 mmHg 63%
    08:00 +4°C° 0 mm 2 m/S 763 mmHg 56%
    09:00 +6°C° 0 mm 2 m/S 764 mmHg 49%
    10:00 +8°C° 0 mm 3 m/S 764 mmHg 43%
    11:00 +9°C° 0 mm 3 m/S 764 mmHg 40%
    12:00 +10°C° 0 mm 3 m/S 764 mmHg 37%
    13:00 +11°C° 0 mm 3 m/S 763 mmHg 33%
    14:00 +11°C° 0 mm 3 m/S 763 mmHg 34%
    15:00 +11°C° 0 mm 3 m/S 763 mmHg 35%
    16:00 +11°C° 0 mm 3 m/S 762 mmHg 36%
    17:00 +10°C° 0 mm 2 m/S 763 mmHg 43%
    18:00 +9°C° 0 mm 2 m/S 763 mmHg 49%
    19:00 +8°C° 0 mm 1 m/S 763 mmHg 56%
    20:00 +8°C° 0 mm 1 m/S 763 mmHg 58%
    21:00 +7°C° 0 mm 1 m/S 763 mmHg 60%
    22:00 +7°C° 0 mm 1 m/S 764 mmHg 61%
    23:00 +7°C° 0 mm 1 m/S 764 mmHg 61%

    übermorgen, 19 Februar, Dienstag

    Zeit Temperatur Niederschläge Wind Luftdruck Luftfeuchtigkeit
    00:00 +6°C° 0 mm 1 m/S 764 mmHg 60%
    01:00 +6°C° 0 mm 1 m/S 764 mmHg 60%
    02:00 +6°C° 0 mm 1 m/S 764 mmHg 59%
    03:00 +5°C° 0 mm 1 m/S 763 mmHg 59%
    04:00 +5°C° 0 mm 1 m/S 763 mmHg 58%
    05:00 +5°C° 0 mm 1 m/S 763 mmHg 60%
    06:00 +5°C° 0 mm 1 m/S 763 mmHg 62%
    07:00 +4°C° 0 mm 1 m/S 764 mmHg 63%
    08:00 +6°C° 0 mm 1 m/S 764 mmHg 56%
    09:00 +8°C° 0 mm 1 m/S 764 mmHg 49%
    10:00 +10°C° 0 mm 1 m/S 764 mmHg 42%
    11:00 +10°C° 0 mm 2 m/S 764 mmHg 39%
    12:00 +12°C° 0 mm 2 m/S 763 mmHg 36%
    13:00 +13°C° 0 mm 2 m/S 763 mmHg 33%
    14:00 +13°C° 0 mm 2 m/S 763 mmHg 34%
    15:00 +13°C° 0 mm 2 m/S 762 mmHg 35%
    16:00 +12°C° 0 mm 2 m/S 762 mmHg 37%
    17:00 +10°C° 0 mm 2 m/S 762 mmHg 43%
    18:00 +9°C° 0 mm 1 m/S 762 mmHg 49%
    19:00 +8°C° 0 mm 1 m/S 762 mmHg 56%
    20:00 +8°C° 0 mm 1 m/S 762 mmHg 58%
    21:00 +7°C° 0 mm 1 m/S 761 mmHg 60%
    22:00 +6°C° 0 mm 0 m/S 761 mmHg 63%
    23:00 +6°C° 0 mm 0 m/S 761 mmHg 64%

    20 Februar, Mittwoch

    Zeit Temperatur Niederschläge Wind Luftdruck Luftfeuchtigkeit
    00:00 +5°C° 0 mm 0 m/S 761 mmHg 65%
    01:00 +5°C° 0 mm 0 m/S 760 mmHg 66%
    02:00 +5°C° 0 mm 0 m/S 760 mmHg 66%
    03:00 +5°C° 0 mm 0 m/S 759 mmHg 66%
    04:00 +4°C° 0 mm 0 m/S 759 mmHg 66%
    05:00 +5°C° 0 mm 1 m/S 759 mmHg 67%
    06:00 +5°C° 0 mm 1 m/S 759 mmHg 69%
    07:00 +5°C° 0 mm 1 m/S 759 mmHg 70%
    08:00 +7°C° 0 mm 1 m/S 758 mmHg 65%
    09:00 +8°C° 0 mm 2 m/S 758 mmHg 60%
    10:00 +10°C° 0 mm 2 m/S 758 mmHg 54%
    11:00 +10°C° 0 mm 3 m/S 757 mmHg 54%
    12:00 +11°C° 0 mm 4 m/S 756 mmHg 53%
    13:00 +12°C° 0 mm 5 m/S 756 mmHg 53%
    14:00 +10°C° 0.1 mm 6 m/S 755 mmHg 54%
    15:00 +10°C° 0.1 mm 6 m/S 754 mmHg 56%
    16:00 +9°C° 0.1 mm 6 m/S 753 mmHg 57%
    17:00 +8°C° 0.3 mm 6 m/S 753 mmHg 59%
    18:00 +8°C° 0.3 mm 5 m/S 753 mmHg 61%
    19:00 +7°C° 0.3 mm 4 m/S 753 mmHg 63%
    20:00 +6°C° 0 mm 4 m/S 753 mmHg 64%
    21:00 +6°C° 0 mm 4 m/S 753 mmHg 65%
    22:00 +7°C° 0 mm 3 m/S 753 mmHg 66%
    23:00 +5°C° 0 mm 3 m/S 752 mmHg 67%

    21 Februar, Donnerstag

    Zeit Temperatur Niederschläge Wind Luftdruck Luftfeuchtigkeit
    00:00 +5°C° 0 mm 3 m/S 752 mmHg 68%
    01:00 +4°C° 0 mm 3 m/S 752 mmHg 69%
    02:00 +4°C° 0 mm 3 m/S 752 mmHg 70%
    03:00 +5°C° 0 mm 2 m/S 752 mmHg 70%
    04:00 +4°C° 0 mm 2 m/S 752 mmHg 71%
    05:00 +4°C° 0 mm 2 m/S 752 mmHg 71%
    06:00 +4°C° 0 mm 2 m/S 752 mmHg 71%
    07:00 +4°C° 0 mm 2 m/S 752 mmHg 72%
    08:00 +5°C° 0 mm 2 m/S 752 mmHg 63%
    09:00 +7°C° 0 mm 3 m/S 752 mmHg 54%
    10:00 +7°C° 0 mm 4 m/S 752 mmHg 45%
    11:00 +8°C° 0 mm 4 m/S 752 mmHg 42%
    12:00 +10°C° 0 mm 4 m/S 751 mmHg 39%
    13:00 +10°C° 0 mm 5 m/S 751 mmHg 37%
    14:00 +10°C° 0 mm 5 m/S 751 mmHg 36%
    15:00 +10°C° 0 mm 5 m/S 751 mmHg 35%
    16:00 +10°C° 0 mm 5 m/S 751 mmHg 34%
    17:00 +10°C° 0 mm 4 m/S 752 mmHg 37%
    18:00 +8°C° 0 mm 4 m/S 752 mmHg 39%
    19:00 +7°C° 0 mm 3 m/S 753 mmHg 42%
    20:00 +7°C° 0 mm 3 m/S 754 mmHg 43%
    21:00 +5°C° 0 mm 3 m/S 754 mmHg 43%
    22:00 +4°C° 0 mm 3 m/S 755 mmHg 43%
    23:00 +5°C° 0 mm 2 m/S 755 mmHg 46%

    22 Februar, Freitag

    Zeit Temperatur Niederschläge Wind Luftdruck Luftfeuchtigkeit
    00:00 +4°C° 0 mm 2 m/S 755 mmHg 49%
    01:00 +4°C° 0 mm 2 m/S 756 mmHg 52%
    02:00 +3°C° 0 mm 2 m/S 756 mmHg 53%
    03:00 +3°C° 0 mm 2 m/S 757 mmHg 55%
    04:00 +2°C° 0 mm 2 m/S 757 mmHg 56%
    05:00 +2°C° 0 mm 2 m/S 758 mmHg 56%
    06:00 +3°C° 0 mm 1 m/S 759 mmHg 57%
    07:00 +3°C° 0 mm 1 m/S 759 mmHg 57%
    08:00 +4°C° 0 mm 2 m/S 760 mmHg 50%
    09:00 +6°C° 0 mm 2 m/S 761 mmHg 43%
    10:00 +8°C° 0 mm 2 m/S 761 mmHg 36%
    11:00 +9°C° 0 mm 2 m/S 761 mmHg 34%
    12:00 +12°C° 0 mm 2 m/S 761 mmHg 31%
    13:00 +13°C° 0 mm 2 m/S 761 mmHg 29%
    14:00 +13°C° 0 mm 2 m/S 762 mmHg 30%
    15:00 +13°C° 0 mm 2 m/S 762 mmHg 31%
    16:00 +13°C° 0 mm 2 m/S 762 mmHg 32%
    17:00 +10°C° 0 mm 2 m/S 762 mmHg 37%
    18:00 +10°C° 0 mm 1 m/S 763 mmHg 43%
    19:00 +8°C° 0 mm 1 m/S 763 mmHg 48%
    20:00 +8°C° 0 mm 1 m/S 763 mmHg 51%
    21:00 +7°C° 0 mm 1 m/S 764 mmHg 54%
    22:00 +6°C° 0 mm 0 m/S 764 mmHg 56%
    23:00 +6°C° 0 mm 0 m/S 764 mmHg 58%
    Mehr zeigen